Regional Weather Roundup
Issued by NWS

Home | Current Version | Previous Version | Text Only | Print | Product List | Glossary On
Versions: 1 2 3 4 5 6 7 8 9 10 11 12 13 14 15 16 17 18 19 20 21 22 23 24 25 26 27 28 29 30 31 32 33 34 35 36 37 38 39 40 41 42 43 44 45 46 47 48 49 50
000
ASUS43 KOAX 251002
RWRNE

WEATHER ROUNDUP FOR NEBRASKA
NATIONAL WEATHER SERVICE OMAHA NE
500 AM CDT FRI JUL 25 2014

NOTES: SATELLITE DATA IS BEING USED TO AUGMENT CLOUD COVER ABOVE
       12000 FEET.
       "FAIR" INDICATES FEW OR NO CLOUDS BELOW 12,000 FEET WITH NO
       SIGNIFICANT WEATHER AND/OR OBSTRUCTIONS TO VISIBILITY.

  * THESE STATIONS DO NOT REPORT WEATHER SUCH AS RAIN...SNOW OR FOG.

NEZ001>004-019>022-054>056-251100-
NEBRASKA PANHANDLE

CITY           SKY/WX    TMP DP  RH WIND       PRES   REMARKS
SCOTTSBLUFF    CLEAR     66  56  70 NW8       29.93R
ALLIANCE       CLEAR     69  53  56 NW14      29.90R
CHADRON        CLEAR     65  57  75 W6        29.91R
KIMBALL        CLEAR     65  54  66 W12       29.99S
SIDNEY         CLEAR     66  53  63 NW13      29.96R
$$

NEZ057>060-069>072-079>082-251100-
SOUTHWEST NEBRASKA

CITY           SKY/WX    TMP DP  RH WIND       PRES   REMARKS
NORTH PLATTE   CLEAR     65  60  84 CALM      29.79F
IMPERIAL       PTCLDY    67  58  72 SW5       29.87R
LEXINGTON      CLEAR     72  69  90 S5        29.78F
MCCOOK         PTCLDY    70  57  63 SW10      29.81S
OGALLALA       CLEAR     59  57  93 CALM      29.85S
$$

NEZ005>010-023>029-035>040-094-251100-
NORTH CENTRAL NEBRASKA

CITY           SKY/WX    TMP DP  RH WIND       PRES   REMARKS
VALENTINE      PTCLDY    72  61  68 SW10      29.74R
BROKEN BOW     CLEAR     77  69  76 SW8       29.76F
O`NEILL        CLEAR     73  66  80 S12       29.72S
ORD            CLEAR     70  68  93 SE5       29.72F
THEDFORD       CLEAR     70  60  70 SW5       29.79F
$$

NEZ041-046>049-061>064-073>077-083>087-251100-
SOUTH CENTRAL NEBRASKA

CITY           SKY/WX    TMP DP  RH WIND       PRES   REMARKS
GRAND ISLAND   CLEAR     77  69  76 S15       29.74F
AURORA         PTCLDY    74  71  91 S10       29.74F
HASTINGS       MOCLDY    77  67  71 S16G22    29.76F
HEBRON         MOCLDY    76  67  74 S7        29.80F
HOLDREGE       PTCLDY    77  65  68 S14       29.79F
KEARNEY *      PTCLDY    73  68  83 S14       29.76F
YORK           PTCLDY    72  68  88 S9        29.76F
$$

NEZ011>018-030>034-042>045-251100-
NORTHEAST NEBRASKA

CITY           SKY/WX    TMP DP  RH WIND       PRES   REMARKS
NORFOLK        CLEAR     74  67  78 S23G32    29.69F
ALBION         CLEAR     71  66  85 SE7       29.73S
BLAIR          CLOUDY    76  66  71 S15G23    29.75F
COLUMBUS *     CLEAR     73  64  73 S13G20    29.73F
FREMONT        PTCLDY    76  68  74 S14G25    29.74S
TEKAMAH        MOCLDY    79  66  64 S14       29.72R
WAYNE          CLEAR     76  69  79 S8        29.72R
$$

NEZ050>053-065>068-078-088>093-251100-
SOUTHEAST NEBRASKA

CITY           SKY/WX    TMP DP  RH WIND       PRES   REMARKS
LINCOLN        MOCLDY    73  66  78 S13       29.76F
OMAHA EPPLEY   CLOUDY    80  67  64 S20G30    29.75R
BEATRICE       MOCLDY    71  67  86 E5        29.80F
FALLS CITY     MOCLDY    71  61  70 S13       29.82F
NEBRASKA CITY  CLOUDY    68  62  80 S12       29.80F
PLATTSMOUTH    CLOUDY    71  64  79 S14       29.77S
$$

NEZ044-045-051>053-067-251100-
OMAHA AREA

CITY           SKY/WX    TMP DP  RH WIND       PRES   REMARKS
OMAHA EPPLEY   CLOUDY    80  67  64 S20G30    29.75R
BLAIR          CLOUDY    76  66  71 S15G23    29.75F
FREMONT        PTCLDY    76  68  74 S14G25    29.74S
MILLARD        MOCLDY    76  68  75 S8        29.76S
OFFUTT AFB     CLOUDY    75  70  85 S12G17    29.76R
PLATTSMOUTH    CLOUDY    71  64  79 S14       29.77S
WAHOO          FAIR      73  67  82 S12       29.75S
$$



USA.gov is the U.S. government's official web portal to all federal, state and local government web resources and services.